AirNav   Air Wisconsin Up To $57,000 Bonus
 
 781 users online  

WS96 Hughes Airport
Monroe, Wisconsin, USA

GOING TO MONROE?


FAA INFORMATION EFFECTIVE 14 JULY 2022

Location

FAA Identifier: WS96
Lat/Long: 42-37-15.0200N 089-46-02.4400W
42-37.250333N 089-46.040667W
42.6208389,-89.7673444
(estimated)
Elevation: 1010 ft. / 308 m (estimated)
Variation: 00W (1995)
From city: 6 miles NW of MONROE, WI
Time zone: UTC -5 (UTC -6 during Standard Time)
Zip code: 53566

Airport Operations

Airport use: Private use. Permission required prior to landing
Activation date: 05/1999
Control tower: no
ARTCC: CHICAGO CENTER
FSS: GREEN BAY FLIGHT SERVICE STATION
Attendance: UNATNDD
Segmented circle: no

Airport Communications

WX AWOS-3 at EFT (8 nm E): 118.375 (608-328-8359)

Nearby radio navigation aids

VOR radial/distance  VOR name  Freq  Var
JVLr274/29.5JANESVILLE VOR/DME114.3003E
MSNr208/36.6MADISON VORTAC108.6003E

Airport Services

Runway Information

Runway 18/36

Dimensions: 1600 x 75 ft. / 488 x 23 m
Surface: turf
RUNWAY 18  RUNWAY 36
Traffic pattern: leftleft
Obstructions: treestrees

Airport Ownership and Management from official FAA records

Ownership: Privately-owned
Owner: TODD & TERRI HUGHES
1710 16 TH ST
MONROE, WI 53566
Phone 608-325-7607
Manager: TERRI HUGHES
1710 16 TH ST
MONROE, WI 53566
Phone 608-325-7607

Airport Operational Statistics

Aircraft based on the field: 1
Single engine airplanes: 1
    

Additional Remarks

FOR CD CTC CHICAGO ARTCC AT 630-906-8921.

Instrument Procedures

There are no published instrument procedures at WS96.

Some nearby airports with instrument procedures:

KEFT - Monroe Municipal Airport (8 nm E)
KFEP - Albertus Airport (24 nm S)
KMRJ - Iowa County Airport (26 nm NW)
KPVB - Platteville Municipal Airport (30 nm W)
C29 - Middleton Municipal Airport - Morey Field (31 nm N)
 
Loc | Ops | Rwys | IFR | FBO | Links
Com | Nav | Svcs | Stats | Notes
Area around WS96 (Hughes Airport)
 
Road maps at: MapQuest Bing Google
 
Aerial photo
No photo
 
Sectional chart

 
Airport distance calculator
Flying to Hughes Airport? Find the distance to fly.

From to WS96

Sunrise and sunset
Times for 10-Aug-2022
 Local
(UTC-5)
 Zulu
(UTC)
Morning civil twilight05:3010:30
Sunrise06:0111:01
Sunset20:0701:07
Evening civil twilight20:3801:38

Current date and time
Zulu (UTC)  10-Aug-2022 11:09:47
Local (UTC-5)  10-Aug-2022 06:09:47
 
METAR
KEFT 
8nm E 
101055Z AUTO 29010KT 10SM CLR 18/14 A3016 RMK AO2 T01800138
TAF
KJVL 
33nm E 
101010Z 1010/1106 00000KT 2SM BR SKC TEMPO 1010/1012 1/2SM FG VV002 FM101200 00000KT 3SM BR SKC FM101300 VRB03KT P6SM SKC FM101600 29006KT P6SM SKC FM110500 34005KT P6SM FEW045
KMSN 
36nm NE 
100900Z 1009/1106 VRB03KT P6SM SKC FM101100 00000KT 3SM BR SKC FM101300 VRB03KT P6SM SKC FM101600 29006KT P6SM FEW250 FM110400 34006KT P6SM SCT040
KRFD 
39nm SE 
100839Z 1009/1106 00000KT P6SM MIFG SKC FM101300 32007KT P6SM FEW040 FM110200 24005KT P6SM SKC
NOTAMs
Click for the latest NOTAMs
NOTAMs are issued by the DoD/FAA and will open in a separate window not controlled by AirNav.

 

 
 

Would you like to see your business listed on this page?

 If your business provides an interesting product or service to pilots, flight crews, aircraft, or users of the Hughes Airport, you should consider listing it here.  To start the listing process, click on the button below
 
Add a business
 

Other Pages about Hughes Airport

Update a link
 
Copyright © AirNav, LLC. All rights reserved. Privacy Policy  Contact